Weather History for Deming, NM

Change the Weather History Date:

Monday, December 31, 2012

  Actual Average Record
Temperature  
Mean Temperature 36 °F 40 °F  
Max Temperature 44 °F 55 °F 71 °F (2011)
Min Temperature 28 °F 25 °F 8 °F (1958)
Degree Days  
Heating Degree Days 28    
Moisture  
Dew Point 29 °F    
Average Humidity 69    
Maximum Humidity 89    
Minimum Humidity 49    
Precipitation  
Precipitation 0.01 in 0.04 in 0.31 in (1965)
Month to date precipitation 0.48 0.89  
Year to date precipitation 4.28 11.55  
Sea Level Pressure  
Sea Level Pressure 29.99 in    
Wind  
Wind Speed 13 mph (West)    
Max Wind Speed 30 mph    
Max Gust Speed 39 mph    
Visibility 10 miles    
Events Rain , Snow    
T = Trace of Precipitation, MM = Missing Value Source: NWS Daily Summary

Daily Weather History Graph

Daily Weather History Graph

Search for Another Location

Airport:

Trip Planner

Search our weather history database for the weather conditions in past years. The results will help you decide how hot, cold, wet, or windy it might be!

Date:

Astronomy

Dec. 31, 2012 Rise Set
Actual Time 7:11 AM MST 5:16 PM MST
Civil Twilight 6:44 AM MST 5:43 PM MST
Nautical Twilight 6:14 AM MST 6:14 PM MST
Astronomical Twilight 5:44 AM MST 6:44 PM MST
Moon 8:37 PM MST (12/31) 9:06 AM MST (12/31)
Length of Visible Light 10h 58m
Length of Day
10h 04m
Waning Gibbous, 90% of the Moon is Illuminated
Dec 31
Waning Gibbous
Jan 4
Last Quarter
Jan 11
New
Jan 18
First Quarter
Jan 26
Full

Hourly Weather History & Observations

Time (MST) Temp. Windchill Dew Point Humidity Pressure Visibility Wind Dir Wind Speed Gust Speed Precip Events Conditions
12:00 AM 37.4 °F 25.9 °F 35.6 °F 93% 29.92 in 4.0 mi WSW 25.3 mph 39.1 mph 0.01 in Rain Light Rain
12:21 AM 37.4 °F 28.5 °F 33.8 °F 87% 29.91 in 10.0 mi WSW 15.0 mph - 0.02 in   Overcast
1:53 AM 36.0 °F 26.7 °F 30.0 °F 79% 29.87 in 10.0 mi WSW 15.0 mph - N/A   Clear
2:53 AM 37.0 °F 28.1 °F 28.9 °F 73% 29.87 in 10.0 mi WSW 15.0 mph 21.9 mph N/A   Partly Cloudy
3:53 AM 32.0 °F 24.8 °F 28.0 °F 85% 29.89 in 10.0 mi WNW 8.1 mph - N/A   Partly Cloudy
4:25 AM 33.8 °F 23.2 °F 30.2 °F 87% 29.94 in 10.0 mi West 17.3 mph 23.0 mph N/A   Mostly Cloudy
4:44 AM 33.8 °F 22.8 °F 30.2 °F 87% 29.94 in 2.0 mi West 18.4 mph 27.6 mph 0.00 in Snow Light Snow
5:08 AM 33.8 °F 25.3 °F 30.2 °F 87% 29.95 in 10.0 mi WSW 11.5 mph - 0.00 in   Overcast
5:53 AM 34.0 °F 25.5 °F 30.9 °F 89% 29.92 in 10.0 mi WSW 11.5 mph - 0.00 in   Overcast
6:53 AM 33.1 °F 24.9 °F 30.9 °F 92% 29.94 in 10.0 mi WSW 10.4 mph - N/A   Overcast
7:53 AM 34.0 °F 27.2 °F 30.9 °F 89% 29.98 in 10.0 mi SW 8.1 mph - N/A   Overcast
8:53 AM 35.1 °F 27.4 °F 32.0 °F 89% 29.98 in 10.0 mi WSW 10.4 mph - N/A   Overcast
9:53 AM 37.0 °F 29.8 °F 32.0 °F 82% 30.01 in 10.0 mi WSW 10.4 mph - N/A   Overcast
10:53 AM 37.9 °F 31.5 °F 32.0 °F 79% 30.01 in 10.0 mi WSW 9.2 mph - N/A   Overcast
11:53 AM 39.0 °F 31.8 °F 30.9 °F 73% 30.00 in 10.0 mi WSW 11.5 mph - N/A   Overcast
12:50 PM 41.0 °F 33.9 °F 33.8 °F 76% 30.01 in 10.0 mi West 12.7 mph 19.6 mph 0.00 in   Overcast
12:53 PM 42.1 °F 36.1 °F 32.0 °F 67% 29.96 in 10.0 mi West 10.4 mph - 0.00 in   Mostly Cloudy
1:53 PM 41.0 °F 33.9 °F 30.0 °F 65% 29.96 in 10.0 mi WSW 12.7 mph 18.4 mph N/A   Overcast
2:53 PM 44.1 °F 35.7 °F 27.0 °F 51% 29.95 in 10.0 mi West 20.7 mph 24.2 mph N/A   Scattered Clouds
3:53 PM 43.0 °F 34.2 °F 24.1 °F 47% 29.97 in 10.0 mi WNW 20.7 mph 28.8 mph N/A   Mostly Cloudy
4:53 PM 41.0 °F 33.1 °F 26.1 °F 55% 30.00 in 10.0 mi West 15.0 mph 23.0 mph N/A   Mostly Cloudy
5:53 PM 37.9 °F 28.5 °F 25.0 °F 60% 30.03 in 10.0 mi West 17.3 mph - N/A   Scattered Clouds
6:53 PM 36.0 °F 27.1 °F 25.0 °F 64% 30.05 in 10.0 mi West 13.8 mph - N/A   Clear
7:53 PM 34.0 °F 26.0 °F 25.0 °F 70% 30.08 in 10.0 mi WNW 10.4 mph - N/A   Clear
8:53 PM 33.1 °F 23.9 °F 24.1 °F 70% 30.09 in 10.0 mi WNW 12.7 mph - N/A   Clear
9:53 PM 30.9 °F 21.2 °F 24.1 °F 76% 30.11 in 10.0 mi West 12.7 mph - N/A   Clear
10:53 PM 30.9 °F 22.2 °F 24.1 °F 76% 30.12 in 10.0 mi West 10.4 mph - N/A   Clear
11:53 PM 28.9 °F 21.9 °F 23.0 °F 78% 30.13 in 10.0 mi West 6.9 mph - N/A   Clear